Regional Weather Roundup
Issued by NWS Wakefield, VA

Home | Current Version | Previous Version | Graphics & Text | Print | Product List | Glossary On
Versions: 1 2 3 4 5 6 7 8 9 10 11 12 13 14 15 16 17 18 19 20 21 22 23 24 25 26 27 28 29 30 31 32 33 34 35 36 37 38 39 40 41 42 43 44 45 46 47 48 49 50
937
ASUS41 KAKQ 101515
RWRAKQ

REGIONAL WEATHER ROUNDUP
NATIONAL WEATHER SERVICE WAKEFIELD VA
1000 AM EST WED FEB 10 2016

Note: "fair" indicates few or no clouds below 12,000 feet with no
significant weather and/or obstructions to visibility. * = Denotes
station may not report precipitation (e.g., rain,snow,etc.),
thunder or fog.

VAZ042-051-052>054-056-101600-
NORTHERN VIRGINIA

CITY           SKY/WX    TMP DP  RH WIND       PRES   REMARKS
WASH NATIONAL  PTSUNNY   33  15  47 NW17G29   29.83R WCI  22
DULLES         PTSUNNY   31  14  49 NW20G25   29.81R WCI  19
FORT BELVOIR   PTSUNNY   33  14  46 NW14G21   29.82R WCI  23
QUANTICO       FAIR      36  17  46 NW9       29.84S
FREDERICKSBRG* FAIR      34  22  61 W9        29.83S
STAFFORD*      FAIR      33  17  50 W7        29.87S
WARRENTON      FAIR      35  21  56 W8        29.82S
CULPEPER*      FAIR      33  15  46 NW6       29.83S
MANASSAS*      PTSUNNY   34  18  51 NW10      29.82R
LEESBURG*      CLOUDY    32  23  69 NW22G30   29.81S WCI  19
WINCHESTER     CLOUDY    32  16  51 W13G22    29.80R WCI  22
FRONT ROYAL*   PTSUNNY   30  14  51 W6G16     29.79S
LURAY*         PTSUNNY   32  14  47 W16G22    29.80S WCI  21
$$

VAZ048-049-060>072-079>083-101600-
CENTRAL AND SOUTH CENTRAL VIRGINIA

CITY           SKY/WX    TMP DP  RH WIND       PRES   REMARKS
RICHMOND       FAIR      32  17  54 W13       29.85R WCI  22
CHESTERFIELD*  FAIR     N/A N/A N/A W9        29.86S
PETERSBURG*    FAIR      35  10  34 W12       29.87S
HANOVER        FAIR      34  16  47 W12G20    29.86R
TAPPAHANNOCK*  FAIR      34  24  66 W8        29.84S
QUINTON*       FAIR      33  20  59 W12       29.84S WCI  24
CHARLOTTSVILLE FAIR      33  11  39 SW12      29.82R WCI  24
GORDONSVILLE*  FAIR      33  12  42 W6G16     29.82S
ORANGE*        FAIR      34  14  44 SW14      29.84R WCI  24
LOUISA*        FAIR      34  14  44 W10G17    29.81S
BUMPASS*       FAIR      32  15  49 W5        29.83R
FARMVILLE*     FAIR      34  13  42 W7        29.85S
CREWE*         FAIR      32  15  48 W10       29.85S WCI  24
FORT PICKETT*  FAIR      32  14  46 W8        29.86R
CHASE CITY*    FAIR      31  11  44 W13       29.88S WCI  21
CLARKSVILLE*   FAIR      32  14  47 W7G17     29.89S
SOUTH HILL*    FAIR      31  15  50 W6G17     29.94S
LAWRENCEVILLE* FAIR      32  15  49 W6        29.87S
EMPORIA*       FAIR      32  16  51 W10G16    29.90S WCI  24
$$

VAZ088>098-101600-
SOUTHEAST VIRGINIA

CITY           SKY/WX    TMP DP  RH WIND       PRES   REMARKS
NORFOLK        FAIR      34  15  46 W10G17    29.86R
VIRGINIA BEACH FAIR      41  17  38 W14       29.85R
NORFOLK NAVAL  FAIR      35  17  47 W10       29.87S
WEST POINT*    FAIR      33  21  59 W10       29.87S
SALUDA*        FAIR      33  24  68 W8        29.84R
NEWPORT NEWS   FAIR      34  18  52 W10       29.85F
LANGLEY AFB    SUNNY     34  18  51 W13       29.84S
FORT EUSTIS    FAIR      35  15  44 NW12      29.84S
WILLIAMSBURG*  FAIR      37  21  52 W14G21    29.86F
HR EXEC AP*    FAIR      36  18  48 W9        29.89R
FRANKLIN*      FAIR      33  16  49 W8        29.89S
US460-WAKEFLD  FAIR      34  14  43 W9        29.87S
$$

VAZ020-022-025-037-045-101600-
WEST CENTRAL AND SOUTHWEST VIRGINIA

CITY           SKY/WX    TMP DP  RH WIND       PRES   REMARKS
STAUNTON*      FAIR      33  14  46 W10       29.82S WCI  24
WAYNESBORO*    FAIR      27   9  46 SW10G18   29.80R WCI  17
HOT SPRINGS VA CLOUDY    13  10  86 W15       29.64R WCI  -2
LYNCHBURG      FAIR      29  12  49 W12       29.85S WCI  19
DANVILLE       FAIR      32  13  45 W10       29.91S WCI  24
SOUTH BOSTON*  FAIR      32  13  44 NW14G20   29.90S WCI  22
MARTINSVILLE   CLOUDY    27  11  51 NW9       29.92R
ROANOKE        CLOUDY    25   9  50 NW22      29.89R WCI  10
BLACKSBURG     CLOUDY    20  11  68 W14G23    29.87R WCI   6
DUBLIN*        FLURRIES  20  13  73 W13       29.87R WCI   8
MARION*        LGT SNOW  17  11  77 W21       29.86R WCI   0
HILLSVILLE*    LGT SNOW  17  12  80 W12G17    29.79S WCI   4
RICHLANDS*     LGT SNOW  14   6  70 W14       29.86R WCI  -1
WISE*          CLOUDY    16   1  53 W12G18    29.89R WCI   3
ABINGDON*      LGT SNOW  18  11  75 W10       29.93R WCI   6
$$

MDZ021>025-VAZ099-100-101600-
SOUTHERN MARYLAND AND THE DELMARVA PENINSULA

CITY           SKY/WX    TMP DP  RH WIND       PRES   REMARKS
PATUXENT RIVER MOSUNNY   34  21  59 NW14      29.82R WCI  25
BAY BRIDGE APT   N/A     32  18  55 NW21      29.80S WCI  20
LEONARDTOWN    MOSUNNY   34  19  55 W12       29.82S
DOVER          SUNNY     31  28  85 W13       29.75S WCI  22
GEORGETOWN     CLOUDY    31  25  78 W16G24    29.79R WCI  20
EASTON         PTSUNNY   32  21  64 NW9G18    29.83R
CAMBRIDGE      CLOUDY    32  19  59 NW12      29.80R WCI  23
SALISBURY      MOSUNNY   33  24  69 W13G23    29.79S WCI  24
OCEAN CITY     MOSUNNY   33  26  75 W17       29.78S WCI  22
WALLOPS ISLAND PTSUNNY   35  23  61 NW17      29.80S WCI  25
ACCOMACK*      CLOUDY    34  27  75 W13       29.82S WCI  25
$$

NCZ012>017-030>032-101600-
NORTH CENTRAL AND EASTERN NORTH CAROLINA

CITY           SKY/WX    TMP DP  RH WIND       PRES   REMARKS
ROANOKE RAPIDS FAIR      32  18  55 W10       29.90S WCI  24
RALEIGH        SUNNY     32  14  47 NW9       29.93S
ELIZABETH CITY SUNNY     34  18  52 W15       29.89S WCI  24
AHOSKIE*       SUNNY     33  17  51 W3        29.91S
EDENTON*       SUNNY     36  19  49 W10       29.91S
CURRITUCK*     MOSUNNY   33  19  57 W10G16    29.89R WCI  24
KILL DEVIL HLS SUNNY     35  20  52 W12G20    29.87R
MANTEO         SUNNY     35  21  57 NW15G21   29.90R
CAPE HATTERAS  SUNNY     36  18  48 NW13G25   29.91S
TARBORO*       FAIR      35  18  49 W14       29.93S
GOLDSBORO      SUNNY     34  14  44 W16       29.93R WCI  23
WASHINGTON     SUNNY     34  17  50 NW12G21   29.93S WCI  25
GREENVILLE     SUNNY     34  18  51 W9G16     29.95S
NEW BERN       SUNNY     36  16  44 W13G22    29.95S
WILMINGTON     SUNNY     38  21  50 W13       29.98R
$$

VAZ048-101600-
ELSEWHERE

CITY           SKY/WX    TMP DP  RH WIND       PRES   REMARKS
HARRISBURG PA  MOSUNNY   31  18  58 W14       29.73S WCI  21
BALTIMORE      PTSUNNY   32  16  51 W18G31    29.78S WCI  20
ANNAPOLIS      CLOUDY    33  18  53 NW13G20   29.79S WCI  24
ANDREWS AFB    FAIR      32  15  49 NW20G26   29.79R WCI  20
PHILADELPHIA   CLOUDY    32  25  75 W17       29.73S WCI  21
HENDERSON NC   SUNNY     31  12  45 NW9G20    29.90S
GREENSBORO     MOSUNNY   30  11  45 W15G23    29.90R WCI  19
ROCKY MOUNT    SUNNY     33  17  51 W9G20     29.93S
$$

VAZ100-101600-
MARINE

STATION/POSITION TIME  TEMP    WIND        PRES    WAVE   SWELL
                       AIR SEA DIR/SP/G            HT/PER HT/PER
                 (UTC) (F)     (DEG/KT/KT) (MB)    (FT/S) (FT/S)
BRANDYWINE LGT   1400   30     300/ 26/ 31 1007.4R
CAPE MAY NJ      1400   31 42  290/ 22/ 28 1007.0R
LEWES DE         1400   30 41  290/ 17/ 20 1008.0R
15NM E FENWICK I 1450   33 43              1007.3R   6/ 5
OCEAN-CITY-INLET 1400   30 41  310/ 13/ 17 1007.6R
WACHAPREAGUE VA  1400   33 42  280/  4/ 15 1009.7R
THOMAS POINT MD  1500   32 38  310/ 16/ 18 1009.6R
GOOSES REEF MD   1500   34 39  320/ 16/ 19 1010.3S   2/ 3
COVE POINT MD    1400   31     310/  9/ 12 1010.0R
SOLOMONS ISLAND  1400   34 40  270/  9/ 11   N/A
BISHOPS HEAD MD  1400   33 38  290/ 15/ 19 1008.6R
PINEY POINT MD   1400          290/ 11/ 12   N/A
POTOMAC MD       1500   34 40  290/ 14/ 17 1008.8R   2/ 2
CAMBRIDGE MD     1400   33 40  290/ 12/ 19 1008.3R
LEWISETTA VA     1400   32 40  280/ 10/ 14 1009.6R
RAPPAHANNOCK LGT 1400          260/ 15/ 16 1010.2R
STINGRAY PT      1500   34 41  280/ 14/ 17 1010.1R   1/ 2
YORK RVR RNG VA  1400   33     290/ 13/ 16 1009.7R
YORKTOWN VA      1400   32 42  270/ 11/ 14 1010.4R
JAMESTOWN VA     1500   32 43  280/ 12/ 16   N/A     0
DOMINION TERM VA 1400   31     290/ 13/ 17 1010.7R
KIPTOPEKE VA     1400      42  290/ 15/ 18   N/A
CHES BAY BRIDGE  1400   32 42  240/ 16/ 19 1010.2R
CAPE HENRY VA    1400   31     260/ 13/ 16   N/A
WILLOUBY STN VA  1400   31     280/ 17/ 21   N/A
CAPE HENRY BUOY  1428      44                N/A     4/13   2/13
1ST LANDING BUOY 1500      42                N/A     2/ 4
CAPE CHARLES BUO 1426      43                N/A     3/14   2/14
OFFSHORE WE BUOY 1421      46                N/A     5/14   3/14
64NM E OF VA BCH 1450   36 50  290/ 19/ 25 1009.6R   8/ 6   3/12
DUCK PIER NC     1400   32     280/ 17/ 23 1010.9R
44100 DUCK FRF   1424      47                N/A     5/13   3/13
44056 DUCK FRF   1411      44                N/A     4/13   3/13
OREGON INLET NC  1400   32 43  280/ 16/ 21 1011.8R
HATTERAS NC      1400   34 49  290/ 24/ 27 1012.4R
DIAMOND SHLS NC  1450   37 73  290/ 21/ 27 1012.6R   8/ 7   3/14
$$




USA.gov is the U.S. government's official web portal to all federal, state and local government web resources and services.